Regional Weather Roundup
Issued by NWS Goodland, KS

Home | Current Version | Previous Version | Graphics & Text | Print | Product List | Glossary On
Versions: 1 2 3 4 5 6 7 8 9 10 11 12 13 14 15 16 17 18 19 20 21 22 23 24 25 26 27 28 29 30 31 32 33 34 35 36 37 38 39 40 41 42 43 44 45 46 47 48 49 50
000
ASUS43 KGLD 301059
RWRGLD

GOODLAND FORECAST AREA HOURLY WEATHER ROUNDUP
NATIONAL WEATHER SERVICE GOODLAND KS
500 AM MDT MON MAY 30 2016

...OFFICIAL OBSERVATIONS...

CITY           SKY/WX    TMP DP  RH WIND       PRES   REMARKS
GOODLAND KS    CLEAR     56  49  77 S12       30.01F
HILL CITY KS   CLEAR     52  50  93 CALM      29.99R
IMPERIAL NEB   PTCLDY    57  50  77 SW8       29.98F
MCCOOK NEB     CLOUDY    56  51  84 SE5       29.99R
AKRON CO       CLEAR     49  46  90 SE7       30.05F
BURLINGTON CO  CLEAR     50  46  86 S7        30.04F
LIMON CO       CLEAR     40  39  97 N3        30.07F
$$

...UNOFFICIAL OBSERVATIONS...

CITY           SKY/WX    TMP DP  RH WIND       PRES   REMARKS
GOVE KS          N/A     64  32  30 MISG        N/A
LENORA KS        N/A     54  32  43 MISG        N/A
SHARON SPRINGS   N/A     52  49  90 S6          N/A
KIT CARSON CO    N/A     49  45  86 CALM        N/A
YUMA CO          N/A     50  47  90 CALM        N/A
$$



USA.gov is the U.S. government's official web portal to all federal, state and local government web resources and services.